When you browse on this site, cookies collect data to enhance your experience and personalize the content and advertising you see.
Visit our Privacy Policy to learn more. By continuing to use the site, you agree to this use of cookies and data.
  • In Czech Republic
  • List of Countries
  • For 7 days
  • Water Temperature
  • Satellite Maps
  • Weather Map
  • Weather Widgets
  • user-avatar
    Login

    Hourly Weather Maline

    Today, 24 July, Wednesday

    Time Temperature Precipitation Wind Pressure Humidity
    00:00 +14°C° 0 mm 3 mps 744 mmHg 95%
    01:00 +14°C° 0 mm 3 mps 744 mmHg 95%
    02:00 +14°C° 0 mm 3 mps 744 mmHg 95%
    03:00 +14°C° 0 mm 3 mps 744 mmHg 95%
    04:00 +14°C° 0 mm 3 mps 744 mmHg 95%
    05:00 +13°C° 0 mm 3 mps 744 mmHg 95%
    06:00 +15°C° 0 mm 4 mps 744 mmHg 89%
    07:00 +18°C° 0 mm 4 mps 744 mmHg 83%
    08:00 +19°C° 0 mm 4 mps 745 mmHg 78%
    09:00 +21°C° 0.1 mm 4 mps 745 mmHg 71%
    10:00 +22°C° 0.1 mm 4 mps 745 mmHg 64%
    11:00 +23°C° 0.1 mm 4 mps 745 mmHg 57%
    12:00 +25°C° 0.1 mm 4 mps 745 mmHg 56%
    13:00 +25°C° 0.1 mm 4 mps 745 mmHg 54%
    14:00 +25°C° 0.1 mm 4 mps 745 mmHg 53%
    15:00 +25°C° 0.1 mm 4 mps 745 mmHg 56%
    16:00 +23°C° 0.1 mm 4 mps 745 mmHg 59%
    17:00 +23°C° 0.1 mm 4 mps 746 mmHg 62%
    18:00 +21°C° 0 mm 3 mps 746 mmHg 68%
    19:00 +20°C° 0 mm 3 mps 746 mmHg 73%
    20:00 +18°C° 0 mm 3 mps 746 mmHg 79%
    21:00 +17°C° 0 mm 3 mps 746 mmHg 81%
    22:00 +17°C° 0 mm 3 mps 746 mmHg 83%
    23:00 +16°C° 0 mm 3 mps 746 mmHg 86%

    Tomorrow, 25 July, Thursday

    Time Temperature Precipitation Wind Pressure Humidity
    00:00 +14°C° 0 mm 3 mps 746 mmHg 87%
    01:00 +14°C° 0 mm 3 mps 746 mmHg 88%
    02:00 +14°C° 0 mm 2 mps 746 mmHg 89%
    03:00 +14°C° 0 mm 2 mps 746 mmHg 87%
    04:00 +15°C° 0 mm 2 mps 746 mmHg 86%
    05:00 +15°C° 0 mm 2 mps 746 mmHg 85%
    06:00 +15°C° 0.1 mm 2 mps 746 mmHg 86%
    07:00 +16°C° 0.1 mm 2 mps 746 mmHg 86%
    08:00 +17°C° 0.1 mm 2 mps 746 mmHg 87%
    09:00 +17°C° 0.6 mm 2 mps 746 mmHg 88%
    10:00 +18°C° 0.6 mm 2 mps 746 mmHg 88%
    11:00 +18°C° 0.6 mm 2 mps 746 mmHg 89%
    12:00 +19°C° 0.5 mm 2 mps 746 mmHg 82%
    13:00 +21°C° 0.5 mm 2 mps 745 mmHg 75%
    14:00 +23°C° 0.5 mm 2 mps 745 mmHg 69%
    15:00 +21°C° 1.2 mm 2 mps 745 mmHg 73%
    16:00 +21°C° 1.2 mm 2 mps 745 mmHg 78%
    17:00 +20°C° 1.2 mm 2 mps 745 mmHg 83%
    18:00 +19°C° 0.3 mm 2 mps 745 mmHg 86%
    19:00 +18°C° 0.3 mm 2 mps 744 mmHg 89%
    20:00 +17°C° 0.3 mm 2 mps 744 mmHg 92%
    21:00 +16°C° 0 mm 2 mps 745 mmHg 94%
    22:00 +16°C° 0 mm 2 mps 745 mmHg 95%
    23:00 +15°C° 0 mm 2 mps 745 mmHg 96%

    Day after tomorrow, 26 July, Friday

    Time Temperature Precipitation Wind Pressure Humidity
    00:00 +15°C° 0 mm 2 mps 745 mmHg 96%
    01:00 +14°C° 0 mm 2 mps 745 mmHg 97%
    02:00 +14°C° 0 mm 2 mps 745 mmHg 97%
    03:00 +14°C° 0 mm 2 mps 745 mmHg 97%
    04:00 +14°C° 0 mm 2 mps 745 mmHg 98%
    05:00 +14°C° 0 mm 2 mps 745 mmHg 98%
    06:00 +14°C° 0 mm 3 mps 745 mmHg 95%
    07:00 +16°C° 0 mm 3 mps 745 mmHg 92%
    08:00 +18°C° 0 mm 3 mps 745 mmHg 89%
    09:00 +19°C° 0 mm 3 mps 745 mmHg 83%
    10:00 +21°C° 0 mm 4 mps 745 mmHg 76%
    11:00 +22°C° 0 mm 4 mps 745 mmHg 69%
    12:00 +22°C° 0.1 mm 4 mps 745 mmHg 72%
    13:00 +22°C° 0.1 mm 4 mps 745 mmHg 75%
    14:00 +21°C° 0.1 mm 4 mps 745 mmHg 78%
    15:00 +20°C° 0.3 mm 4 mps 745 mmHg 84%
    16:00 +19°C° 0.3 mm 4 mps 745 mmHg 89%
    17:00 +18°C° 0.3 mm 3 mps 745 mmHg 94%
    18:00 +18°C° 0 mm 3 mps 745 mmHg 95%
    19:00 +18°C° 0 mm 2 mps 745 mmHg 95%
    20:00 +18°C° 0 mm 2 mps 745 mmHg 96%
    21:00 +18°C° 0 mm 2 mps 745 mmHg 95%
    22:00 +18°C° 0 mm 2 mps 745 mmHg 95%
    23:00 +18°C° 0 mm 2 mps 745 mmHg 95%

    27 July, Saturday

    Time Temperature Precipitation Wind Pressure Humidity
    00:00 +18°C° 0 mm 2 mps 744 mmHg 95%
    01:00 +18°C° 0 mm 2 mps 744 mmHg 95%
    02:00 +17°C° 0 mm 3 mps 744 mmHg 95%
    03:00 +17°C° 0 mm 3 mps 744 mmHg 96%
    04:00 +17°C° 0 mm 3 mps 744 mmHg 96%
    05:00 +17°C° 0 mm 3 mps 744 mmHg 96%
    06:00 +18°C° 0 mm 4 mps 744 mmHg 93%
    07:00 +19°C° 0 mm 5 mps 744 mmHg 90%
    08:00 +20°C° 0 mm 5 mps 743 mmHg 87%
    09:00 +22°C° 0.1 mm 5 mps 744 mmHg 81%
    10:00 +23°C° 0.1 mm 6 mps 744 mmHg 76%
    11:00 +24°C° 0.1 mm 6 mps 744 mmHg 70%
    12:00 +24°C° 0.3 mm 6 mps 743 mmHg 70%
    13:00 +26°C° 0.3 mm 6 mps 743 mmHg 70%
    14:00 +26°C° 0.3 mm 6 mps 743 mmHg 69%
    15:00 +26°C° 0.2 mm 6 mps 743 mmHg 70%
    16:00 +26°C° 0.2 mm 5 mps 743 mmHg 71%
    17:00 +26°C° 0.2 mm 5 mps 743 mmHg 72%
    18:00 +23°C° 0.3 mm 4 mps 743 mmHg 78%
    19:00 +22°C° 0.3 mm 3 mps 743 mmHg 84%
    20:00 +20°C° 0.3 mm 3 mps 743 mmHg 90%
    21:00 +20°C° 0 mm 3 mps 743 mmHg 92%
    22:00 +19°C° 0 mm 3 mps 743 mmHg 94%
    23:00 +18°C° 0 mm 2 mps 743 mmHg 95%

    28 July, Sunday

    Time Temperature Precipitation Wind Pressure Humidity
    00:00 +18°C° 0 mm 2 mps 743 mmHg 95%
    01:00 +18°C° 0 mm 2 mps 743 mmHg 96%
    02:00 +17°C° 0 mm 2 mps 743 mmHg 96%
    03:00 +17°C° 0 mm 2 mps 743 mmHg 96%
    04:00 +17°C° 0 mm 2 mps 742 mmHg 95%
    05:00 +17°C° 0 mm 2 mps 742 mmHg 95%
    06:00 +18°C° 0 mm 2 mps 742 mmHg 90%
    07:00 +20°C° 0 mm 3 mps 742 mmHg 85%
    08:00 +22°C° 0 mm 3 mps 742 mmHg 80%
    09:00 +24°C° 0.5 mm 3 mps 742 mmHg 79%
    10:00 +23°C° 0.5 mm 4 mps 742 mmHg 78%
    11:00 +25°C° 0.5 mm 4 mps 742 mmHg 77%
    12:00 +25°C° 0.6 mm 4 mps 742 mmHg 77%
    13:00 +25°C° 0.6 mm 5 mps 742 mmHg 76%
    14:00 +25°C° 0.6 mm 5 mps 742 mmHg 76%
    15:00 +25°C° 0.4 mm 5 mps 742 mmHg 76%
    16:00 +23°C° 0.4 mm 4 mps 742 mmHg 76%
    17:00 +23°C° 0.4 mm 4 mps 742 mmHg 76%
    18:00 +21°C° 0.1 mm 4 mps 742 mmHg 80%
    19:00 +19°C° 0.1 mm 4 mps 742 mmHg 83%
    20:00 +17°C° 0.1 mm 3 mps 743 mmHg 87%
    21:00 +16°C° 0 mm 3 mps 743 mmHg 88%
    22:00 +14°C° 0 mm 3 mps 743 mmHg 90%
    23:00 +13°C° 0 mm 2 mps 743 mmHg 91%

    29 July, Monday

    Time Temperature Precipitation Wind Pressure Humidity
    00:00 +13°C° 0 mm 2 mps 744 mmHg 91%
    01:00 +12°C° 0 mm 2 mps 744 mmHg 91%
    02:00 +10°C° 0 mm 2 mps 744 mmHg 91%
    03:00 +10°C° 0 mm 2 mps 744 mmHg 90%
    04:00 +9°C° 0 mm 2 mps 744 mmHg 89%
    05:00 +9°C° 0 mm 2 mps 745 mmHg 88%
    06:00 +10°C° 0 mm 2 mps 745 mmHg 81%
    07:00 +12°C° 0 mm 3 mps 745 mmHg 73%
    08:00 +13°C° 0 mm 3 mps 745 mmHg 66%
    09:00 +14°C° 0 mm 3 mps 745 mmHg 62%
    10:00 +16°C° 0 mm 3 mps 746 mmHg 58%
    11:00 +17°C° 0 mm 3 mps 746 mmHg 54%
    12:00 +18°C° 0 mm 3 mps 746 mmHg 55%
    13:00 +18°C° 0 mm 3 mps 745 mmHg 56%
    14:00 +18°C° 0 mm 3 mps 745 mmHg 57%
    15:00 +17°C° 0 mm 3 mps 745 mmHg 60%
    16:00 +17°C° 0 mm 4 mps 745 mmHg 62%
    17:00 +17°C° 0 mm 4 mps 745 mmHg 65%
    18:00 +14°C° 0 mm 3 mps 745 mmHg 69%
    19:00 +14°C° 0 mm 2 mps 745 mmHg 74%
    20:00 +12°C° 0 mm 2 mps 745 mmHg 78%
    21:00 +12°C° 0 mm 2 mps 745 mmHg 79%
    22:00 +10°C° 0 mm 2 mps 745 mmHg 80%
    23:00 +10°C° 0 mm 2 mps 745 mmHg 82%
    Show more